N70AX LIML-LEIB

Flight info

Callsign N70AX
Flight time N/A
Altitude 35000
Route GEN DCT ENOBA DCT GEKBA DCT VAMTU DCT KOLON DCT GANGU DCT PADKO DCT VATIR N852 PIVUS Z237 SULID DCT DIMIB DCT POS
Aircraft CL60/M-SADE3FGHIJ3J4J7P2RWXY/HB1D1

Departure

Time 2026-04-29 08:36
Airport Milano Linate Airport (LIML)

Arrival

Time N/A
Airport Ibiza Airport (LEIB)
Time Latitude Longitude Altitude Speed Heading
2026-04-29 07:55 45.45502 9.26141 358 ft 0 kts 245°
2026-04-29 08:26 45.45501 9.26140 358 ft 0 kts 251°
2026-04-29 08:26 45.45518 9.26141 358 ft 6 kts 41°
2026-04-29 08:26 45.45571 9.26166 358 ft 10 kts 353°
2026-04-29 08:27 45.45661 9.26156 358 ft 15 kts 353°
2026-04-29 08:27 45.45784 9.26142 359 ft 19 kts 359°
2026-04-29 08:27 45.45909 9.26203 359 ft 18 kts 38°
2026-04-29 08:27 45.46001 9.26318 359 ft 18 kts 48°
2026-04-29 08:28 45.46063 9.26498 359 ft 22 kts 81°
2026-04-29 08:28 45.46066 9.26738 359 ft 26 kts 90°
2026-04-29 08:28 45.46053 9.26994 359 ft 24 kts 99°
2026-04-29 08:28 45.46021 9.27217 360 ft 21 kts 91°
2026-04-29 08:29 45.46021 9.27412 361 ft 18 kts 93°
2026-04-29 08:29 45.46013 9.27579 362 ft 15 kts 101°
2026-04-29 08:29 45.45967 9.27717 362 ft 17 kts 130°
2026-04-29 08:29 45.45917 9.27802 362 ft 8 kts 120°
2026-04-29 08:30 45.45907 9.27902 363 ft 12 kts 91°
2026-04-29 08:30 45.45821 9.27985 363 ft 13 kts 178°
2026-04-29 08:30 45.45714 9.27983 361 ft 18 kts 180°
2026-04-29 08:31 45.45573 9.27980 361 ft 22 kts 181°
2026-04-29 08:31 45.45427 9.27978 360 ft 17 kts 180°
2026-04-29 08:31 45.45340 9.27943 360 ft 13 kts 206°
2026-04-29 08:31 45.45242 9.27878 359 ft 17 kts 197°
2026-04-29 08:32 45.45104 9.27878 358 ft 22 kts 174°
2026-04-29 08:32 45.44999 9.27889 357 ft 12 kts 173°
2026-04-29 08:32 45.44900 9.27919 356 ft 16 kts 162°
2026-04-29 08:32 45.44770 9.27949 356 ft 21 kts 171°
2026-04-29 08:33 45.44609 9.27964 354 ft 25 kts 180°
2026-04-29 08:33 45.44422 9.27987 352 ft 28 kts 176°
2026-04-29 08:33 45.44210 9.28008 350 ft 32 kts 175°
2026-04-29 08:33 45.43977 9.28032 348 ft 35 kts 174°
2026-04-29 08:34 45.43789 9.28054 346 ft 21 kts 174°
2026-04-29 08:34 45.43626 9.28072 345 ft 25 kts 175°
2026-04-29 08:34 45.43509 9.28081 344 ft 8 kts 178°
2026-04-29 08:34 45.43451 9.28032 343 ft 12 kts 256°
2026-04-29 08:35 45.43444 9.27939 343 ft 6 kts 267°
2026-04-29 08:35 45.43442 9.27853 344 ft 1 kts 272°
2026-04-29 08:35 45.43450 9.27826 343 ft 5 kts 319°
2026-04-29 08:35 45.43637 9.27796 345 ft 76 kts 358°
2026-04-29 08:36 45.44497 9.27712 402 ft 162 kts 358°
2026-04-29 08:36 45.45697 9.27597 1161 ft 181 kts 357°
2026-04-29 08:36 45.46954 9.27435 2235 ft 189 kts 354°
2026-04-29 08:36 45.48260 9.27260 3342 ft 196 kts 358°
2026-04-29 08:37 45.49633 9.27198 4414 ft 206 kts
2026-04-29 08:37 45.50948 9.27943 5475 ft 219 kts 44°
2026-04-29 08:37 45.51627 9.29853 6680 ft 227 kts 85°
2026-04-29 08:37 45.51316 9.32022 7921 ft 234 kts 112°
2026-04-29 08:38 45.50661 9.34108 9136 ft 241 kts 114°
2026-04-29 08:38 45.49989 9.36268 10352 ft 246 kts 113°
2026-04-29 08:38 45.49161 9.38380 11521 ft 252 kts 129°
2026-04-29 08:38 45.47871 9.40015 12635 ft 257 kts 150°
2026-04-29 08:39 45.46151 9.41113 13191 ft 287 kts 160°
2026-04-29 08:39 45.44218 9.42135 13938 ft 307 kts 160°
2026-04-29 08:39 45.42205 9.43209 14944 ft 316 kts 160°
2026-04-29 08:39 45.40143 9.44311 15985 ft 322 kts 160°
2026-04-29 08:40 45.38047 9.45431 17014 ft 327 kts 160°
2026-04-29 08:40 45.35916 9.46570 17984 ft 332 kts 161°
2026-04-29 08:40 45.33733 9.47737 18946 ft 337 kts 161°
2026-04-29 08:40 45.31541 9.48907 19855 ft 342 kts 161°
2026-04-29 08:41 45.29332 9.50086 20723 ft 347 kts 161°
2026-04-29 08:41 45.27058 9.51300 21587 ft 351 kts 161°
2026-04-29 08:41 45.24784 9.52513 22414 ft 356 kts 161°
2026-04-29 08:41 45.22463 9.53750 23212 ft 361 kts 161°
2026-04-29 08:42 45.20117 9.55024 24004 ft 366 kts 160°
2026-04-29 08:42 45.17711 9.56356 24784 ft 371 kts 160°
2026-04-29 08:42 45.15296 9.57692 25531 ft 376 kts 160°
2026-04-29 08:42 45.12877 9.59028 26234 ft 380 kts 161°
2026-04-29 08:43 45.10325 9.59995 26942 ft 380 kts 176°
2026-04-29 08:43 45.07695 9.59889 27599 ft 377 kts 194°
2026-04-29 08:43 45.05255 9.58692 28201 ft 375 kts 210°
2026-04-29 08:43 45.02949 9.56840 28819 ft 378 kts 213°
2026-04-29 08:44 45.00679 9.54988 29435 ft 381 kts 213°
2026-04-29 08:44 44.98375 9.53117 30042 ft 384 kts 212°
2026-04-29 08:44 44.96048 9.51228 30595 ft 388 kts 213°
2026-04-29 08:44 44.93712 9.49334 31098 ft 391 kts 213°
2026-04-29 08:45 44.91342 9.47414 31575 ft 395 kts 213°
2026-04-29 08:45 44.88955 9.45483 32053 ft 398 kts 213°
2026-04-29 08:45 44.86517 9.43512 32506 ft 401 kts 213°
2026-04-29 08:45 44.84096 9.41557 32925 ft 404 kts 213°
2026-04-29 08:46 44.81653 9.39587 33335 ft 407 kts 213°
2026-04-29 08:46 44.79205 9.37615 33724 ft 409 kts 213°
2026-04-29 08:46 44.76714 9.35610 34167 ft 410 kts 213°
2026-04-29 08:46 44.74267 9.33644 34656 ft 409 kts 213°
2026-04-29 08:47 44.71780 9.31646 34995 ft 411 kts 213°
2026-04-29 08:47 44.66752 9.27610 35075 ft 428 kts 212°
2026-04-29 08:48 44.61466 9.23377 35074 ft 445 kts 212°
2026-04-29 08:48 44.56029 9.19035 35079 ft 453 kts 212°
2026-04-29 08:49 44.50621 9.14580 35079 ft 451 kts 217°
2026-04-29 08:49 44.45951 9.08867 35077 ft 445 kts 230°
2026-04-29 08:50 44.42428 9.01831 35076 ft 441 kts 244°
2026-04-29 08:50 44.40208 8.93881 35078 ft 437 kts 257°
2026-04-29 08:51 44.38882 8.85662 35071 ft 437 kts 259°
2026-04-29 08:51 44.37561 8.77366 35072 ft 437 kts 259°
2026-04-29 08:52 44.36234 8.69077 35070 ft 438 kts 259°
2026-04-29 08:52 44.34907 8.60839 35063 ft 439 kts 259°
2026-04-29 08:53 44.33566 8.52551 35062 ft 439 kts 259°
2026-04-29 08:53 44.32214 8.44238 35063 ft 440 kts 259°
2026-04-29 08:54 44.30855 8.35919 35068 ft 440 kts 259°
2026-04-29 08:54 44.29779 8.27511 35066 ft 439 kts 266°
2026-04-29 08:55 44.29332 8.18980 35075 ft 440 kts 266°
2026-04-29 08:55 44.28875 8.10519 35072 ft 439 kts 266°
2026-04-29 08:56 44.28409 8.02041 35069 ft 439 kts 267°
2026-04-29 08:56 44.27937 7.93586 35073 ft 440 kts 266°
2026-04-29 08:57 44.26950 7.85206 35079 ft 442 kts 256°
2026-04-29 08:57 44.24560 7.77308 35083 ft 445 kts 242°
2026-04-29 08:58 44.20821 7.70379 35082 ft 450 kts 228°
2026-04-29 08:58 44.16172 7.64506 35079 ft 453 kts 224°
2026-04-29 08:59 44.11833 7.58239 35072 ft 451 kts 232°
2026-04-29 08:59 44.07727 7.51638 35059 ft 451 kts 231°
2026-04-29 09:00 44.03631 7.45081 35072 ft 451 kts 232°
2026-04-29 09:00 43.99493 7.38476 35071 ft 451 kts 232°
2026-04-29 09:01 43.95382 7.31933 35061 ft 452 kts 231°
2026-04-29 09:01 43.91230 7.25342 35061 ft 452 kts 231°
2026-04-29 09:02 43.87118 7.18831 35052 ft 452 kts 231°
2026-04-29 09:02 43.82971 7.12279 35045 ft 452 kts 231°
2026-04-29 09:03 43.78818 7.05737 35059 ft 452 kts 231°
2026-04-29 09:03 43.74687 6.99231 35052 ft 452 kts 231°
2026-04-29 09:04 43.71270 6.92007 35059 ft 448 kts 246°
2026-04-29 09:04 43.68896 6.84100 35055 ft 447 kts 250°
2026-04-29 09:05 43.66559 6.76168 35057 ft 448 kts 250°
2026-04-29 09:05 43.64211 6.68227 35053 ft 448 kts 250°
2026-04-29 09:06 43.61853 6.60278 35046 ft 448 kts 250°
2026-04-29 09:06 43.59486 6.52325 35033 ft 449 kts 250°
2026-04-29 09:07 43.57115 6.44383 35029 ft 449 kts 250°
2026-04-29 09:07 43.54736 6.36441 35026 ft 450 kts 250°
2026-04-29 09:08 43.52349 6.28498 35022 ft 451 kts 249°
2026-04-29 09:08 43.49945 6.20520 35020 ft 452 kts 249°
2026-04-29 09:09 43.47543 6.12578 35016 ft 452 kts 249°
2026-04-29 09:09 43.45114 6.04569 34999 ft 453 kts 249°
2026-04-29 09:10 43.42700 5.96634 35005 ft 453 kts 249°
2026-04-29 09:10 43.40255 5.88622 35006 ft 453 kts 249°
2026-04-29 09:11 43.37830 5.80700 34998 ft 452 kts 249°
2026-04-29 09:11 43.35393 5.72766 34999 ft 452 kts 249°
2026-04-29 09:12 43.32942 5.64806 34992 ft 452 kts 249°
2026-04-29 09:12 43.30490 5.56872 34993 ft 452 kts 249°
2026-04-29 09:13 43.28040 5.48964 34991 ft 452 kts 249°
2026-04-29 09:13 43.25571 5.41026 34986 ft 451 kts 248°
2026-04-29 09:14 43.22463 5.33558 34979 ft 453 kts 234°
2026-04-29 09:14 43.18119 5.27365 34977 ft 455 kts 222°
2026-04-29 09:15 43.13322 5.21755 34978 ft 456 kts 221°
2026-04-29 09:15 43.08492 5.16110 34971 ft 457 kts 221°
2026-04-29 09:16 43.03676 5.10492 34970 ft 456 kts 221°
2026-04-29 09:16 42.98867 5.04893 34966 ft 455 kts 221°
2026-04-29 09:17 42.94029 4.99273 34968 ft 455 kts 221°
2026-04-29 09:17 42.89237 4.93716 34975 ft 455 kts 221°
2026-04-29 09:18 42.84401 4.88120 34980 ft 456 kts 221°
2026-04-29 09:18 42.79602 4.82580 34980 ft 456 kts 221°
2026-04-29 09:19 42.74768 4.77009 34979 ft 456 kts 221°
2026-04-29 09:19 42.69941 4.71459 34963 ft 455 kts 221°
2026-04-29 09:20 42.65107 4.65911 34979 ft 456 kts 221°
2026-04-29 09:20 42.60268 4.60371 34975 ft 456 kts 221°
2026-04-29 09:21 42.55440 4.54854 34973 ft 455 kts 221°
2026-04-29 09:21 42.50618 4.49356 34973 ft 453 kts 221°
2026-04-29 09:22 42.45804 4.43877 34988 ft 453 kts 221°
2026-04-29 09:22 42.40989 4.38410 34989 ft 450 kts 221°
2026-04-29 09:23 42.36183 4.32963 34970 ft 452 kts 219°
2026-04-29 09:23 42.31387 4.27538 34970 ft 453 kts 219°
2026-04-29 09:24 42.26567 4.22098 34974 ft 453 kts 219°
2026-04-29 09:24 42.21728 4.16649 34972 ft 454 kts 219°
2026-04-29 09:25 42.16828 4.11371 34981 ft 455 kts 213°
2026-04-29 09:25 42.11334 4.07226 34897 ft 452 kts 208°
2026-04-29 09:26 42.05821 4.03189 34969 ft 454 kts 208°
2026-04-29 09:26 42.00271 3.99131 34969 ft 455 kts 208°
2026-04-29 09:27 41.94729 3.95085 34968 ft 455 kts 208°
2026-04-29 09:27 41.89120 3.91167 34967 ft 455 kts 206°
2026-04-29 09:28 41.83498 3.87391 34968 ft 455 kts 206°
2026-04-29 09:28 41.77829 3.83587 34968 ft 455 kts 206°
2026-04-29 09:29 41.72176 3.79800 34968 ft 454 kts 206°
2026-04-29 09:29 41.63726 3.74153 34970 ft 454 kts 206°
2026-04-29 09:30 41.58086 3.70393 34973 ft 454 kts 206°
2026-04-29 09:30 41.52449 3.66641 34972 ft 454 kts 206°
2026-04-29 09:31 41.46794 3.62885 34971 ft 454 kts 206°
2026-04-29 09:31 41.41137 3.59135 34971 ft 455 kts 206°
2026-04-29 09:32 41.35502 3.55405 34972 ft 455 kts 206°
2026-04-29 09:32 41.29823 3.51655 34971 ft 455 kts 206°
2026-04-29 09:33 41.24174 3.47931 34971 ft 455 kts 206°
2026-04-29 09:33 41.18418 3.44420 34972 ft 454 kts 198°
2026-04-29 09:34 41.12303 3.42512 34968 ft 454 kts 191°
2026-04-29 09:34 41.06137 3.40890 34965 ft 454 kts 191°
2026-04-29 09:35 40.99934 3.39259 34963 ft 454 kts 191°
2026-04-29 09:35 40.93758 3.37636 34955 ft 455 kts 191°
2026-04-29 09:36 40.87559 3.36009 34941 ft 455 kts 191°
2026-04-29 09:36 40.81330 3.34377 34943 ft 455 kts 190°
2026-04-29 09:37 40.75124 3.32755 34947 ft 455 kts 190°
2026-04-29 09:37 40.68917 3.31134 34939 ft 455 kts 190°
2026-04-29 09:38 40.62737 3.29523 34938 ft 455 kts 190°
2026-04-29 09:38 40.56539 3.27911 34936 ft 456 kts 190°
2026-04-29 09:39 40.50324 3.26297 34939 ft 456 kts 190°
2026-04-29 09:39 40.44108 3.24686 34935 ft 456 kts 190°
2026-04-29 09:40 40.37871 3.23072 34934 ft 456 kts 190°
2026-04-29 09:40 40.31679 3.21473 34939 ft 457 kts 190°
2026-04-29 09:41 40.25419 3.19857 34929 ft 457 kts 190°
2026-04-29 09:41 40.19217 3.18259 34930 ft 457 kts 190°
2026-04-29 09:42 40.12964 3.16651 34928 ft 457 kts 190°
2026-04-29 09:42 40.06739 3.15053 34922 ft 457 kts 190°
2026-04-29 09:43 40.00531 3.13462 34926 ft 458 kts 190°
2026-04-29 09:43 39.94252 3.11856 34930 ft 458 kts 190°
2026-04-29 09:44 39.88023 3.10266 34928 ft 458 kts 190°
2026-04-29 09:44 39.81769 3.08673 34920 ft 457 kts 190°
2026-04-29 09:45 39.75550 3.07094 34924 ft 457 kts 190°
2026-04-29 09:45 39.69319 3.05472 34920 ft 456 kts 193°
2026-04-29 09:46 39.63351 3.02637 34925 ft 458 kts 206°
2026-04-29 09:46 39.58053 2.98103 34931 ft 458 kts 220°
2026-04-29 09:47 39.53698 2.92144 34945 ft 456 kts 230°
2026-04-29 09:47 39.49725 2.85760 34929 ft 454 kts 231°
2026-04-29 09:48 39.45769 2.79426 34933 ft 452 kts 231°
2026-04-29 09:48 39.41846 2.73163 34922 ft 451 kts 231°
2026-04-29 09:49 39.37883 2.66864 34925 ft 451 kts 231°
2026-04-29 09:49 39.33949 2.60624 34782 ft 447 kts 231°
2026-04-29 09:50 39.31997 2.57531 34311 ft 441 kts 231°
2026-04-29 09:50 39.30069 2.54480 33744 ft 435 kts 232°
2026-04-29 09:50 39.28180 2.51493 33179 ft 430 kts 232°
2026-04-29 09:50 39.26297 2.48517 32625 ft 425 kts 232°
2026-04-29 09:51 39.24452 2.45607 32066 ft 421 kts 232°
2026-04-29 09:51 39.22607 2.42697 31507 ft 417 kts 232°
2026-04-29 09:51 39.20770 2.39803 30955 ft 413 kts 232°
2026-04-29 09:51 39.18982 2.36990 30416 ft 409 kts 232°
2026-04-29 09:52 39.17178 2.34152 29869 ft 405 kts 231°
2026-04-29 09:52 39.15414 2.31380 29343 ft 401 kts 231°
2026-04-29 09:52 39.13640 2.28596 28808 ft 397 kts 232°
2026-04-29 09:52 39.11911 2.25884 28290 ft 394 kts 231°
2026-04-29 09:53 39.10187 2.23182 27763 ft 390 kts 231°
2026-04-29 09:53 39.08488 2.20521 27257 ft 386 kts 231°
2026-04-29 09:53 39.06786 2.17858 26746 ft 382 kts 231°
2026-04-29 09:53 39.05102 2.15225 26243 ft 379 kts 231°
2026-04-29 09:54 39.03450 2.12644 25746 ft 375 kts 231°
2026-04-29 09:54 39.01819 2.10097 25256 ft 371 kts 231°
2026-04-29 09:54 39.00189 2.07556 24767 ft 367 kts 231°
2026-04-29 09:54 38.98569 2.05031 24280 ft 364 kts 231°
2026-04-29 09:55 38.96970 2.02541 23805 ft 360 kts 231°
2026-04-29 09:55 38.95394 2.00089 23328 ft 357 kts 231°
2026-04-29 09:55 38.93810 1.97627 22855 ft 354 kts 231°
2026-04-29 09:55 38.92273 1.95239 22392 ft 349 kts 231°
2026-04-29 09:56 38.90875 1.92714 21931 ft 344 kts 243°
2026-04-29 09:56 38.90099 1.89857 21465 ft 340 kts 255°
2026-04-29 09:56 38.89517 1.86956 21007 ft 336 kts 255°
2026-04-29 09:56 38.88925 1.84056 20574 ft 332 kts 255°